GW6588 Weather Reports


Display with metric or nautical units.
time (UTC)temp
F
wind
direction
speed
MPH
gust
MPH
rain 1hr
in
rain 24hr
in
rain mn
in
humidity
%
barometer
mb
20260503020511 55 258 2.0 3.0 0.00 0.00 0.00 45 1017.3
20260503020030 55 262 2.0 3.0 0.00 0.00 0.00 47 1017.4
20260503015513 56 256 1.0 2.0 0.00 0.00 0.00 47 1017.4
20260503015015 56 255 1.0 2.0 0.00 0.00 0.00 47 1017.4
20260503014527 56 258 1.0 2.0 0.00 0.00 0.00 48 1017.4
20260503014013 56 265 1.0 3.0 0.00 0.00 0.00 46 1017.5
20260503013513 56 260 1.0 3.0 0.00 0.00 0.00 46 1017.4
20260503013029 57 262 1.0 2.0 0.00 0.00 0.00 45 1017.4
20260503012510 57 260 1.0 2.0 0.00 0.00 0.00 45 1017.4
20260503012012 58 264 1.0 2.0 0.00 0.00 0.00 46 1017.3
20260503011533 58 252 1.0 2.0 0.00 0.00 0.00 46 1017.4
20260503011013 58 255 1.0 2.0 0.00 0.00 0.00 45 1017.4
20260503010513 59 260 1.0 2.0 0.00 0.00 0.00 45 1017.4
20260503010031 60 258 1.0 1.0 0.00 0.00 0.00 44 1017.5
20260503005513 61 259 1.0 2.0 0.00 0.00 0.00 38 1017.5
20260503005012 62 261 1.0 2.0 0.00 0.00 0.00 39 1017.5
20260503004530 62 210 1.0 3.0 0.00 0.00 0.00 30 1017.6
20260503004009 62 236 0.0 3.0 0.00 0.00 0.00 37 1017.5
20260503003510 62 224 1.0 3.0 0.00 0.00 0.00 35 1017.6
20260503003030 63 0 0.0 2.0 0.00 0.00 0.00 33 1017.5
20260503002515 63 271 0.0 2.0 0.00 0.00 0.00 34 1017.6
20260503002012 64 228 0.0 3.0 0.00 0.00 0.00 31 1017.5
20260503001529 65 0 0.0 3.0 0.00 0.00 0.00 27 1017.6
20260503001011 65 97 0.0 3.0 0.00 0.00 0.00 29 1017.6
20260503000513 65 0 0.0 4.0 0.00 0.00 0.00 31 1017.6
20260503000030 66 216 2.0 4.0 0.00 0.00 0.00 27 1017.5
20260502235512 65 0 1.0 7.0 0.00 0.00 0.00 23 1017.6
20260502235010 65 179 1.0 7.0 0.00 0.00 0.00 28 1017.6
20260502234545 66 58 2.0 7.0 0.00 0.00 0.00 24 1017.6
20260502234013 65 51 1.0 3.0 0.00 0.00 0.00 26 1017.6
20260502233509 65 0 0.0 1.0 0.00 0.00 0.00 36 1017.7
20260502233027 65 0 0.0 1.0 0.00 0.00 0.00 35 1017.8
20260502232510 66 0 0.0 2.0 0.00 0.00 0.00 34 1017.7
20260502232012 67 230 0.0 4.0 0.00 0.00 0.00 31 1017.8
20260502231529 67 72 1.0 5.0 0.00 0.00 0.00 27 1017.8
20260502231014 68 49 2.0 5.0 0.00 0.00 0.00 25 1017.8
20260502230513 68 73 0.0 5.0 0.00 0.00 0.00 28 1017.9
20260502230028 68 65 2.0 5.0 0.00 0.00 0.00 24 1018.1
20260502225514 69 70 1.0 5.0 0.00 0.00 0.00 26 1018.1
20260502225013 68 245 0.0 2.0 0.00 0.00 0.00 25 1018.2
20260502224529 69 298 0.0 6.0 0.00 0.00 0.00 29 1018.2
20260502224013 68 203 1.0 7.0 0.00 0.00 0.00 24 1018.2
20260502223515 69 58 3.0 7.0 0.00 0.00 0.00 26 1018.3
20260502223030 68 0 0.0 7.0 0.00 0.00 0.00 25 1018.3
20260502222513 69 66 3.0 7.0 0.00 0.00 0.00 23 1018.4
20260502222012 69 11 2.0 5.0 0.00 0.00 0.00 27 1018.4
20260502221528 69 76 1.0 5.0 0.00 0.00 0.00 26 1018.4
20260502221011 69 0 1.0 4.0 0.00 0.00 0.00 26 1018.4
20260502220513 69 58 1.0 7.0 0.00 0.00 0.00 24 1018.3
20260502220030 68 66 3.0 7.0 0.00 0.00 0.00 24 1018.4
20260502215513 69 82 1.0 6.0 0.00 0.00 0.00 23 1018.4
20260502215014 68 311 4.0 8.0 0.00 0.00 0.00 22 1018.4
20260502214539 69 24 4.0 8.0 0.00 0.00 0.00 23 1018.5
20260502214016 69 84 3.0 7.0 0.00 0.00 0.00 25 1018.5
20260502213512 69 83 2.0 7.0 0.00 0.00 0.00 22 1018.6
20260502213030 69 76 2.0 5.0 0.00 0.00 0.00 23 1018.6
20260502212513 68 65 2.0 6.0 0.00 0.00 0.00 23 1018.6
20260502212013 68 20 3.0 6.0 0.00 0.00 0.00 20 1018.7
20260502211534 68 77 1.0 8.0 0.00 0.00 0.00 22 1018.9
20260502211010 68 60 4.0 8.0 0.00 0.00 0.00 20 1019.0
20260502210513 69 0 1.0 5.0 0.00 0.00 0.00 23 1019.2
20260502210031 69 58 0.0 4.0 0.00 0.00 0.00 24 1019.2
20260502205516 68 27 2.0 6.0 0.00 0.00 0.00 22 1019.2
20260502205011 68 248 1.0 6.0 0.00 0.00 0.00 25 1019.2
20260502204526 68 70 2.0 4.0 0.00 0.00 0.00 23 1019.2
20260502204014 67 45 2.0 4.0 0.00 0.00 0.00 25 1019.3
20260502203511 67 43 0.0 5.0 0.00 0.00 0.00 25 1019.3
20260502203028 66 9 2.0 6.0 0.00 0.00 0.00 23 1019.4
20260502202512 66 84 3.0 6.0 0.00 0.00 0.00 26 1019.4
20260502202012 67 67 2.0 6.0 0.00 0.00 0.00 25 1019.3
20260502201530 66 63 2.0 6.0 0.00 0.00 0.00 26 1019.4
20260502201012 66 311 3.0 7.0 0.00 0.00 0.00 27 1019.4
20260502200512 66 53 4.0 7.0 0.00 0.00 0.00 27 1019.4
20260502200030 67 56 2.0 4.0 0.00 0.00 0.00 27 1019.4
20260502195512 66 72 1.0 5.0 0.00 0.00 0.00 27 1019.4
20260502195013 66 94 1.0 7.0 0.00 0.00 0.00 28 1019.5
20260502194529 65 25 3.0 7.0 0.00 0.00 0.00 29 1019.5
20260502194013 65 74 2.0 6.0 0.00 0.00 0.00 27 1019.6
20260502193510 66 23 2.0 6.0 0.00 0.00 0.00 28 1019.6
20260502193028 65 88 2.0 8.0 0.00 0.00 0.00 28 1019.7
20260502192512 65 143 3.0 8.0 0.00 0.00 0.00 29 1019.7
20260502192012 64 98 2.0 11.0 0.00 0.00 0.00 28 1019.7
20260502191530 64 62 4.0 11.0 0.00 0.00 0.00 27 1019.7
20260502191012 63 58 5.0 11.0 0.00 0.00 0.00 26 1019.7
20260502190511 64 53 5.0 9.0 0.00 0.00 0.00 26 1019.8
20260502190032 64 38 3.0 7.0 0.00 0.00 0.00 30 1019.8
20260502185510 64 65 3.0 8.0 0.00 0.00 0.00 30 1019.9
20260502185012 64 87 2.0 11.0 0.00 0.00 0.00 33 1019.9
20260502184527 63 119 4.0 11.0 0.00 0.00 0.00 33 1019.9
20260502184011 62 42 4.0 11.0 0.00 0.00 0.00 32 1020.0
20260502183511 62 63 4.0 6.0 0.00 0.00 0.00 33 1020.1
20260502183029 61 88 2.0 6.0 0.00 0.00 0.00 35 1020.2
20260502182515 61 81 2.0 6.0 0.00 0.00 0.00 40 1020.3
20260502182012 60 39 3.0 6.0 0.00 0.00 0.00 39 1020.3
20260502181534 60 53 3.0 6.0 0.00 0.00 0.00 43 1020.3
20260502181013 59 248 2.0 5.0 0.00 0.00 0.00 47 1020.2
20260502180512 58 62 2.0 5.0 0.00 0.00 0.00 47 1020.3
20260502170510 54 77 2.0 6.0 0.00 0.00 0.00 58 1020.7
20260502164012 51 34 1.0 4.0 0.00 0.00 0.00 64 1020.9
20260502163512 51 70 2.0 4.0 0.00 0.00 0.00 64 1020.8
20260502163032 50 79 1.0 3.0 0.00 0.00 0.00 67 1020.9
20260502162513 49 32 2.0 3.0 0.00 0.00 0.00 66 1020.8
20260502162011 48 77 1.0 3.0 0.00 0.00 0.00 68 1020.8
20260502161527 48 24 2.0 3.0 0.00 0.00 0.00 69 1020.7
20260502161015 48 68 1.0 2.0 0.00 0.00 0.00 72 1020.8
20260502160513 47 23 1.0 2.0 0.00 0.00 0.00 74 1020.8
20260502152013 43 64 0.0 2.0 0.00 0.00 0.00 79 1020.9
20260502151529 43 39 1.0 2.0 0.00 0.00 0.00 78 1020.9
20260502151012 43 34 0.0 2.0 0.00 0.00 0.00 79 1020.9
20260502150510 43 78 1.0 2.0 0.00 0.00 0.00 78 1020.8
20260502130512 33 0 0.0 0.0 0.00 0.00 0.00 88 1020.8
20260502123512 34 0 0.0 0.0 0.00 0.00 0.00 88 1020.9
20260502123028 33 0 0.0 0.0 0.00 0.00 0.00 88 1020.8
20260502122511 33 0 0.0 0.0 0.00 0.00 0.00 88 1020.8
20260502122012 33 0 0.0 0.0 0.00 0.00 0.00 87 1020.6
20260502121538 34 0 0.0 0.0 0.00 0.00 0.00 88 1020.7
20260502121011 34 0 0.0 0.0 0.00 0.00 0.00 87 1020.7
20260502120513 34 0 0.0 0.0 0.00 0.00 0.00 88 1020.7
20260502115514 34 0 0.0 0.0 0.00 0.00 0.00 88 1020.7
20260502115013 34 0 0.0 0.0 0.00 0.00 0.00 87 1020.7
20260502114528 34 0 0.0 0.0 0.00 0.00 0.00 87 1020.7
20260502114012 34 0 0.0 0.0 0.00 0.00 0.00 87 1020.6
20260502113512 35 0 0.0 0.0 0.00 0.00 0.00 87 1020.6
20260502113026 35 0 0.0 0.0 0.00 0.00 0.00 86 1020.7
20260502112511 35 0 0.0 0.0 0.00 0.00 0.00 86 1020.8
20260502112010 36 0 0.0 0.0 0.00 0.00 0.00 85 1020.8
20260502111532 36 0 0.0 0.0 0.00 0.00 0.00 85 1020.8
20260502111011 36 0 0.0 0.0 0.00 0.00 0.00 85 1020.8
20260502110511 36 0 0.0 0.0 0.00 0.00 0.00 84 1020.7
20260502110035 36 0 0.0 0.0 0.00 0.00 0.00 85 1020.8
20260502105513 36 0 0.0 0.0 0.00 0.00 0.00 84 1020.8
20260502105015 36 0 0.0 0.0 0.00 0.00 0.00 82 1020.8
20260502104528 36 0 0.0 0.0 0.00 0.00 0.00 83 1020.8
20260502104012 36 0 0.0 0.0 0.00 0.00 0.00 82 1020.9
20260502103510 37 0 0.0 0.0 0.00 0.00 0.00 82 1020.9
20260502103026 37 0 0.0 0.0 0.00 0.00 0.00 83 1020.9
20260502102511 38 0 0.0 0.0 0.00 0.00 0.00 81 1020.9
20260502102013 38 0 0.0 0.0 0.00 0.00 0.00 80 1020.9
20260502101526 38 0 0.0 0.0 0.00 0.00 0.00 80 1021.0
20260502101010 38 0 0.0 0.0 0.00 0.00 0.00 78 1020.9
20260502100510 37 0 0.0 0.0 0.00 0.00 0.00 78 1021.0
20260502091527 38 0 0.0 0.0 0.00 0.00 0.00 78 1021.0
20260502091011 39 0 0.0 0.0 0.00 0.00 0.00 76 1021.0
20260502090512 38 0 0.0 0.0 0.00 0.00 0.00 74 1021.1
20260502071530 42 271 0.0 0.0 0.00 0.00 0.00 66 1021.3
20260502071010 43 271 0.0 1.0 0.00 0.00 0.00 67 1021.2
20260502070513 43 271 0.0 1.0 0.00 0.00 0.00 67 1021.2
20260502070027 43 271 0.0 1.0 0.00 0.00 0.00 68 1021.1
20260502065513 43 271 0.0 1.0 0.00 0.00 0.00 69 1021.2
20260502065017 43 271 0.0 1.0 0.00 0.00 0.00 69 1021.1
20260502064531 43 271 0.0 0.0 0.00 0.00 0.00 70 1021.1
20260502064009 43 271 0.0 1.0 0.00 0.00 0.00 70 1021.1
20260502063510 43 271 0.0 1.0 0.00 0.00 0.00 70 1021.2
20260502063031 44 271 0.0 0.0 0.00 0.00 0.00 69 1021.1
20260502062511 44 271 0.0 1.0 0.00 0.00 0.00 69 1021.2
20260502062013 44 271 0.0 1.0 0.00 0.00 0.00 69 1021.1
20260502061526 44 271 0.0 1.0 0.00 0.00 0.00 69 1021.1
20260502061012 44 271 0.0 1.0 0.00 0.00 0.00 69 1021.1
20260502060511 44 271 0.0 1.0 0.00 0.00 0.00 69 1021.1
20260502060027 44 0 0.0 1.0 0.00 0.00 0.00 69 1021.1
20260502055512 44 271 0.0 1.0 0.00 0.00 0.00 68 1021.1
20260502055011 44 271 0.0 0.0 0.00 0.00 0.00 68 1021.2
20260502054536 44 271 0.0 1.0 0.00 0.00 0.00 68 1021.2
20260502054014 44 271 0.0 1.0 0.00 0.00 0.00 68 1021.1
20260502053512 45 271 0.0 1.0 0.00 0.00 0.00 67 1021.2
20260502053035 45 271 0.0 1.0 0.00 0.00 0.00 68 1021.2
20260502052512 45 271 0.0 1.0 0.00 0.00 0.00 67 1021.2
20260502052011 45 271 0.0 1.0 0.00 0.00 0.00 67 1021.2
20260502051530 45 271 0.0 1.0 0.00 0.00 0.00 66 1021.2
20260502051010 45 272 0.0 1.0 0.00 0.00 0.00 66 1021.2
20260502050515 45 272 0.0 1.0 0.00 0.00 0.00 66 1021.1
20260502050030 45 272 0.0 1.0 0.00 0.00 0.00 67 1021.0
20260502045511 45 273 0.0 1.0 0.00 0.00 0.00 66 1021.0
20260502045011 45 274 0.0 1.0 0.00 0.00 0.00 67 1021.1
20260502044528 45 274 0.0 1.0 0.00 0.00 0.00 67 1021.0
20260502044011 46 272 1.0 1.0 0.00 0.00 0.00 66 1021.0
20260502043508 46 265 1.0 1.0 0.00 0.00 0.00 65 1021.0
20260502043027 46 266 0.0 1.0 0.00 0.00 0.00 66 1021.1
20260502042509 45 269 0.0 1.0 0.00 0.00 0.00 66 1021.0
20260502042012 45 269 1.0 1.0 0.00 0.00 0.00 66 1021.0
20260502041529 46 269 1.0 1.0 0.00 0.00 0.00 65 1021.0
20260502041012 46 264 1.0 1.0 0.00 0.00 0.00 65 1020.9
20260502040510 46 279 1.0 1.0 0.00 0.00 0.00 64 1021.0
20260502040028 46 279 1.0 2.0 0.00 0.00 0.00 64 1020.9
20260502035512 47 266 1.0 2.0 0.00 0.00 0.00 63 1020.9
20260502035013 47 265 1.0 2.0 0.00 0.00 0.00 62 1020.9
20260502034528 47 259 1.0 2.0 0.00 0.00 0.00 62 1020.9
20260502034013 47 262 1.0 2.0 0.00 0.00 0.00 62 1020.8
20260502033512 47 258 1.0 2.0 0.00 0.00 0.00 63 1020.7
20260502033040 48 259 1.0 1.0 0.00 0.00 0.00 62 1020.7
20260502032509 48 252 1.0 1.0 0.00 0.00 0.00 63 1020.7
20260502032015 48 255 1.0 1.0 0.00 0.00 0.00 63 1020.6
20260502031530 48 271 0.0 2.0 0.00 0.00 0.00 63 1020.6
20260502031009 49 271 1.0 2.0 0.00 0.00 0.00 63 1020.5
20260502030513 49 259 1.0 2.0 0.00 0.00 0.00 63 1020.4
20260502030028 49 264 0.0 2.0 0.00 0.00 0.00 63 1020.5
20260502025513 50 275 1.0 2.0 0.00 0.00 0.00 62 1020.4
20260502025011 50 257 2.0 2.0 0.00 0.00 0.00 61 1020.3
20260502024527 51 260 1.0 2.0 0.00 0.00 0.00 61 1020.3
20260502024012 51 251 1.0 2.0 0.00 0.00 0.00 61 1020.3
20260502023510 52 251 1.0 2.0 0.00 0.00 0.00 60 1020.3
20260502023026 52 247 1.0 2.0 0.00 0.00 0.00 61 1020.3
20260502022509 52 233 1.0 2.0 0.00 0.00 0.00 60 1020.3
20260502022010 52 231 1.0 2.0 0.00 0.00 0.00 60 1020.4
20260502021546 52 239 0.0 2.0 0.00 0.00 0.00 60 1020.4
20260502021013 52 226 0.0 2.0 0.00 0.00 0.00 59 1020.4